Flag for U.S.A. Weather past 2 weeks in Lincoln, Nebraska, U.S.A.

Now
19 °F

Light snow. Mostly cloudy.


Feels Like: 7 °F
Forecast: 7 / 25 °F
Wind: 12 mph from South

Location: Lincoln Municipal Airport

Current Time: Feb 28, 2015 at 12:09:39 PM

Latest Report: Feb 28, 2015 at 11:04 AM


Visibility: 2 mi

Pressure: 30.46 "Hg

Humidity: 77%

Dew point: 13 °F

Location of LincolnLocation

Historic Weather in Lincoln — Graph

°F

Lincoln temperature yesterday

Maximum temperature yesterday: 21 °F (at 4:54 PM)
Minimum temperature yesterday: -6 °F (at 6:54 AM)
Average temperature yesterday: 8 °F

Past Weeks' High & Low Weather Summary

 TemperatureHumidityPressure
High53 °F (Feb 13, 3:54 PM)93% (Feb 21, 8:03 AM)30.89 "Hg (Feb 21, 8:03 AM)
Low-6 °F (Feb 27, 6:54 AM)26% (Feb 23, 2:54 PM)29.76 "Hg (Feb 25, 8:54 AM)
Average20 °F61%30.32 "Hg
* Reported Feb 13 11:54 AM — Feb 28 11:04 AM, Lincoln, Weather by CustomWeather, © 2015

Note: Actual official high and low records may vary slightly from our data, if they occured in-between our weather recording intervals... More about our weather records

Advertising

Lincoln weather history for previous 24 hours

 ConditionsComfort  
Time TempWeatherWind HumidityBarometerVisibility
11:04 AM
Sat, Feb 28
19 °FLight snow. Mostly cloudy.12 mph77%30.46 "Hg2 mi
9:54 AM17 °FSunny.9 mph74%30.53 "Hg10 mi
8:54 AM13 °FPartly sunny.10 mph74%30.54 "Hg9 mi
7:54 AM8 °FSunny.6 mph79%30.53 "Hg10 mi
6:54 AM6 °FClear.5 mph79%30.54 "Hg10 mi
5:54 AM7 °FClear.No wind76%30.54 "Hg10 mi
4:54 AM7 °FClear.5 mph76%30.53 "Hg10 mi
3:54 AM7 °FClear.6 mph76%30.53 "Hg10 mi
2:54 AM5 °FClear.7 mph80%30.54 "Hg10 mi
1:54 AM7 °FClear.8 mph76%30.55 "Hg10 mi
12:54 AM9 °FClear.8 mph70%30.55 "Hg10 mi
11:54 PM
Fri, Feb 27
10 °FPassing clouds.6 mph64%30.56 "Hg10 mi
10:54 PM8 °FClear.8 mph69%30.57 "Hg10 mi
9:54 PM10 °FClear.8 mph64%30.58 "Hg10 mi
8:54 PM12 °FPassing clouds.8 mph61%30.58 "Hg10 mi
7:54 PM14 °FClear.7 mph56%30.58 "Hg10 mi
6:54 PM15 °FClear.7 mph53%30.58 "Hg10 mi
5:54 PM19 °FSunny.9 mph43%30.57 "Hg10 mi
4:54 PM21 °FSunny.6 mph41%30.57 "Hg10 mi
3:54 PM20 °FSunny.No wind38%30.58 "Hg10 mi
2:54 PM20 °FSunny.6 mph40%30.59 "Hg10 mi
1:54 PM18 °FSunny.7 mph39%30.62 "Hg10 mi
12:54 PM17 °FSunny.3 mph41%30.66 "Hg10 mi
Weather by CustomWeather, © 2015

See weather overviewHow to use our weather pages